This demonstration page uses our WeatherBlox Daily Observations layout. Learn more.

Hourly Observations for June 20, 2015

Temp ( °F °C ) Dew Point ( °F °C ) Humidity (%) Winds ( mph kmh ) Pressure ( in mb ) Visibility ( mi km ) Precip ( " mm )
12:15 am 00:15 Clear 74 23.6 67 19.7 79 79 SSE 13 20 29.68 1005 10 16.0934 0 0
12:35 am 00:35 Clear 74 23.3 67 19.7 80 80 S 14 22 29.68 1005 10 16.0934 0 0
12:55 am 00:55 Clear 74 23.2 67 19.7 81 81 S 14 22 29.68 1005 10 16.0934 0 0
1:15 am 01:15 Clear 74 23.4 67 19.7 80 80 S 15 24 29.68 1005 10 16.0934 0 0
1:35 am 01:35 Clear 74 23.2 67 19.6 80 80 S 15 24 29.68 1005 10 16.0934 0 0
1:55 am 01:55 Clear 73 22.7 67 19.6 83 83 S 10 17 29.68 1005 10 16.0934 0 0
2:15 am 02:15 Clear 73 22.5 67 19.6 84 84 S 12 19 29.68 1005 10 16.0934 0 0
2:35 am 02:35 Clear 73 22.5 67 19.6 84 84 S 12 19 29.68 1005 10 16.0934 0 0
2:55 am 02:55 Clear 72 22 67 19.6 86 86 S 12 19 29.68 1005 10 16.0934 0 0
3:15 am 03:15 Clear 72 22 67 19.5 86 86 S 10 17 29.68 1005 10 16.0934 0 0
3:35 am 03:35 Clear 71 21.5 67 19.5 88 88 S 9 15 29.68 1005 10 16.0934 0 0
3:55 am 03:55 Clear 70 21.3 67 19.4 89 89 S 9 15 29.68 1005 10 16.0934 0 0
4:15 am 04:15 Clear 71 21.5 67 19.5 88 88 S 13 20 29.65 1004 10 16.0934 0 0
4:35 am 04:35 Clear 71 21.5 67 19.3 87 87 S 12 19 29.65 1004 10 16.0934 0 0
4:55 am 04:55 Clear 71 21.6 67 19.3 87 87 S 14 22 29.65 1004 10 16.0934 0 0
5:15 am 05:15 Clear 71 21.5 67 19.2 87 87 S 10 17 29.65 1004 10 16.0934 0 0
5:35 am 05:35 Clear 71 21.4 66 19.1 87 87 S 10 17 29.62 1003 10 16.0934 0 0
5:55 am 05:55 Clear 71 21.5 66 18.8 85 85 S 12 19 29.62 1003 10 16.0934 0 0
6:15 am 06:15 Sunny 70 21.3 66 18.8 86 86 S 12 19 29.62 1003 10 16.0934 0 0
6:35 am 06:35 Sunny 70 21.2 65 18.5 85 85 S 12 19 29.62 1003 10 16.0934 0 0
6:55 am 06:55 Sunny 70 21.2 65 18.3 84 84 S 9 15 29.65 1004 10 16.0934 0 0
7:15 am 07:15 Sunny 70 21 65 18.6 86 86 N 3 6 29.68 1005 10 16.0934 0 0
7:35 am 07:35 Sunny 72 22.2 65 18.2 78 78 SW 9 15 29.68 1005 10 16.0934 0 0
7:55 am 07:55 Sunny 73 22.9 65 18.3 75 75 S 6 9 29.65 1004 10 16.0934 0 0
8:15 am 08:15 Sunny 74 23.2 65 18.1 73 73 S 7 11 29.65 1004 10 16.0934 0 0
8:35 am 08:35 Sunny 74 23.6 64 18 71 71 WSW 5 7 29.68 1005 10 16.0934 0 0
8:55 am 08:55 Sunny 75 24 65 18.2 70 70 SSW 6 9 29.68 1005 10 16.0934 0 0
9:15 am 09:15 Sunny 76 24.5 65 18.1 68 68 WSW 6 9 29.65 1004 10 16.0934 0 0
9:35 am 09:35 Sunny 77 25 65 18.3 66 66 W 6 9 29.65 1004 10 16.0934 0 0
9:55 am 09:55 Sunny 78 25.3 65 18.3 65 65 W 8 13 29.65 1004 10 16.0934 0 0
10:15 am 10:15 Sunny 78 25.6 65 18.4 65 65 WNW 5 7 29.65 1004 10 16.0934 0 0
10:35 am 10:35 Sunny 79 26.2 66 18.9 64 64 NW 6 9 29.65 1004 10 16.0934 0 0
10:55 am 10:55 Sunny 80 26.4 66 18.8 63 63 N 6 9 29.65 1004 10 16.0934 0 0
11:15 am 11:15 Sunny 81 27 67 19.3 63 63 N 8 13 29.65 1004 7 11.26538 0 0
11:35 am 11:35 Sunny 81 27 67 19.7 64 64 N 9 15 29.65 1004 10 16.0934 0 0
11:55 am 11:55 Sunny 82 27.8 67 19.7 61 61 NE 12 19 29.65 1004 10 16.0934 0 0
12:15 pm 12:15 Sunny 80 26.7 67 19.7 66 66 NNE 13 20 29.65 1004 10 16.0934 0 0
12:35 pm 12:35 Sunny 82 28 69 20.7 65 65 N 15 24 29.68 1005 10 16.0934 0 0
12:55 pm 12:55 Partly Cloudy 84 28.7 70 21.3 64 64 N 15 24 29.65 1004 10 16.0934 0 0
1:15 pm 13:15 Partly Cloudy 83 28.5 70 21.1 64 64 NNE 17 28 29.65 1004 10 16.0934 0 0
1:35 pm 13:35 Mostly Cloudy 83 28.6 71 21.4 65 65 N 16 26 29.65 1004 10 16.0934 0 0
1:55 pm 13:55 Mostly Cloudy 83 28.4 70 20.9 64 64 NNE 16 26 29.71 1006 10 16.0934 0 0
2:15 pm 14:15 Mostly Cloudy 83 28.2 69 20.7 64 64 NNE 15 24 29.71 1006 10 16.0934 0 0
2:35 pm 14:35 Mostly Cloudy 84 28.8 70 21 63 63 NNE 15 24 29.68 1005 10 16.0934 0 0
2:55 pm 14:55 Mostly Cloudy 84 28.8 70 21 63 63 NNE 20 31 29.68 1005 10 16.0934 0 0
3:15 pm 15:15 Mostly Cloudy 83 28.2 68 20.2 62 62 NE 15 24 29.71 1006 10 16.0934 0 0
3:35 pm 15:35 Cloudy 83 28.1 68 20.1 62 62 NNE 17 28 29.74 1007 10 16.0934 0 0
3:55 pm 15:55 Mostly Cloudy 83 28.5 67 19.2 57 57 NNE 16 26 29.74 1007 10 16.0934 0 0
4:15 pm 16:15 Partly Cloudy 84 28.7 66 18.7 55 55 NNE 18 30 29.74 1007 10 16.0934 0 0
4:35 pm 16:35 Sunny 84 28.7 65 18.5 54 54 NNE 17 28 29.74 1007 10 16.0934 0 0
4:55 pm 16:55 Sunny 83 28.6 65 18.6 55 55 NE 15 24 29.74 1007 10 16.0934 0 0
5:15 pm 17:15 Sunny 83 28.5 65 18.2 54 54 NNE 15 24 29.74 1007 10 16.0934 0 0
5:35 pm 17:35 Sunny 83 28.4 65 18.4 55 55 NNE 16 26 29.74 1007 10 16.0934 0 0
5:55 pm 17:55 Sunny 83 28.1 65 18.4 56 56 NE 14 22 29.74 1007 10 16.0934 0 0
6:15 pm 18:15 Sunny 82 27.9 65 18.2 56 56 NNE 17 28 29.74 1007 10 16.0934 0 0
6:35 pm 18:35 Sunny 82 27.6 65 18.2 57 57 NNE 13 20 29.74 1007 10 16.0934 0 0
6:55 pm 18:55 Sunny 81 27.2 63 17.4 55 55 NE 16 26 29.74 1007 10 16.0934 0 0
7:15 pm 19:15 Sunny 80 26.8 64 17.6 57 57 NE 15 24 29.74 1007 10 16.0934 0 0
7:35 pm 19:35 Sunny 80 26.5 64 17.7 59 59 NE 10 17 29.74 1007 10 16.0934 0 0
7:55 pm 19:55 Sunny 78 25.8 62 16.8 58 58 NE 10 17 29.74 1007 10 16.0934 0 0
8:15 pm 20:15 Sunny 77 25.1 64 17.5 63 63 ENE 8 13 29.77 1008 10 16.0934 0 0
8:35 pm 20:35 Sunny 76 24.3 64 17.9 68 68 NE 7 11 29.77 1008 10 16.0934 0 0
8:55 pm 20:55 Sunny 74 23.1 65 18.1 74 74 NE 6 9 29.77 1008 10 16.0934 0 0
9:15 pm 21:15 Clear 72 22 64 18 78 78 ENE 7 11 29.77 1008 10 16.0934 0 0
9:35 pm 21:35 Clear 70 21.3 64 18 82 82 NE 5 7 29.83 1010 10 16.0934 0 0
9:55 pm 21:55 Clear 70 21 64 17.7 82 82 Calm 29.83 1010 10 16.0934 0 0
11:15 pm 23:15 Clear 67 19.4 63 17.3 88 88 NNE 6 9 29.85 1011 10 16.0934 0 0

Powered by AerisWeather